Location: Rimforest
(34.2297°N, 117.2250°W)
Time: 05:10:57
(UTC+00:00)

Daily predictions for brighter satellites

Satellite Brightness Start Highest point End
(mag) Time Altitude Azimuth Time Altitude Azimuth Time Altitude Azimuth
Cosmos 2297 3.8 02:41:09 10° SSW 02:46:47 89° ESE 02:52:30 10° NNE
SL-08 R/B 4.0 02:42:35 10° N 02:47:14 60° WNW 02:51:55 10° SSW
CZ-4B DEB 4.4 02:45:26 10° SSE 02:50:50 58° ENE 02:56:15 10° N
SJ 16-02 3.2 02:49:41 10° NE 02:51:45 13° ENE 02:53:48 10° E
Cosmos 1441 Rocket 3.7 02:48:32 10° SSW 02:52:12 63° W 02:55:55 10° N
ADEOS 3.7 02:50:39 10° SSE 02:55:51 82° WSW 03:01:06 10° NNW
Cosmos 2369 Rocket 2.2 02:50:22 10° SSW 02:56:02 77° ESE 03:01:43 10° NNE
APEX 2.8 02:53:20 10° NNW 02:56:32 73° WSW 02:59:28 10° SSE
ADEOS Rocket 3.1 02:51:18 10° S 02:56:56 72° WSW 03:02:24 10° NNW
NOSS 3-1 (A) 4.4 02:58:14 10° SE 03:00:28 13° ESE 03:02:48 10° ENE
SPOT 1/Viking Rocket 3.9 02:59:03 10° SE 03:03:58 45° ENE 03:08:55 10° N
SL-8 Rocket 4.4 02:58:38 10° N 03:04:24 40° E 03:10:07 10° SSE
Cosmos 2263 4.2 02:59:31 10° S 03:05:05 65° ESE 03:10:39 10° NNE
Cosmos 1825 2.8 03:02:11 10° NNE 03:05:16 30° E 03:08:07 11° SE
H-2A ROCKET BODY 3.7 03:01:43 10° WSW 03:06:31 47° S 03:21:37 14° ESE
Cosmos 1674 Rocket 3.6 03:03:55 10° N 03:08:23 87° W 03:12:48 10° S
CZ-4B R/B 3.6 03:05:15 10° SE 03:10:37 47° ENE 03:15:59 10° N
Hubble Space Telescope 1.6 03:10:37 10° WSW 03:14:14 34° S 03:16:31 18° ESE
[s.n.70599] 2.5 03:12:28 10° WNW 03:14:58 61° SSW 03:16:17 23° SE
Cosmos 2341 Rocket 4.1 03:09:47 10° N 03:15:57 56° E 03:22:02 10° SSE
Resurs 1-3 3.5 03:14:46 10° SSE 03:19:06 89° E 03:23:28 10° NNW
Cosmos 2082 Rocket 4.1 03:16:04 10° NW 03:20:59 30° WSW 03:25:52 10° SSW
USA 234 3.5 03:15:42 15° ESE 03:21:02 55° NE 03:27:21 10° NW
Milstar 3 4.2 03:13:21 10° SW 03:22:01 51° SSE 03:37:37 11° E
NOSS 3-1 (C) 2.8 03:18:46 10° SSW 03:23:18 62° ESE 03:28:31 10° NE
Cosmos 1025 Rocket 3.1 03:24:44 10° N 03:29:01 55° E 03:32:22 16° SSE
Okean O Rocket 2.1 03:26:49 21° SE 03:29:12 40° ENE 03:33:16 10° N
Resurs 01 Rocket 1.9 03:32:30 23° SE 03:34:58 48° ENE 03:39:14 10° N
Cosmos 2366 rocket 4.0 03:29:02 10° N 03:35:21 65° E 03:41:38 10° SSE
Cosmos 1346 Rocket 3.1 03:31:55 10° SSW 03:35:43 66° W 03:39:31 10° N
CARTOSAT-1 3.9 03:35:11 27° SE 03:37:04 44° ENE 03:41:07 10° N
SJ-6B 3.7 03:33:34 10° S 03:37:21 49° W 03:41:12 10° NNW
Cosmos 1975 Rocket 3.5 03:37:21 10° N 03:41:23 38° E 03:42:19 34° ESE
Cosmos 2218 Rocket 4.0 03:36:25 10° N 03:42:48 72° E 03:48:45 12° SSE
ATLAS 3B R/B 2.9 03:37:52 10° S 03:44:24 51° ESE 03:51:26 10° NE
Cosmos 1328 3.6 03:40:50 10° N 03:44:37 90° ENE 03:46:50 24° S
OAO 3 Rocket 3.2 03:44:08 10° W 03:49:02 82° N 03:51:07 35° E
Centaur D-1AR AC-36 3.9 03:45:12 10° SSW 03:49:17 26° SSE 03:50:48 25° SE
USA 281 3.5 03:46:26 27° ESE 03:49:48 49° ENE 03:56:05 10° N
USA 186 2.2 03:49:12 28° SSW 03:50:36 57° W 03:53:38 10° NNW
Cosmos 1821 Rocket 4.2 03:45:01 10° N 03:50:54 45° E 03:53:13 32° SE
Cosmos 1782 Rocket 4.0 03:47:04 10° SSW 03:51:20 60° W 03:55:40 10° N
Cosmos 1892 4.0 03:48:51 10° NNW 03:52:10 37° W 03:55:27 10° SSW
Cosmos 1959 Rocket 4.4 03:46:39 10° N 03:52:48 82° E 03:58:02 15° S
Meteor 1-21 Rocket 4.3 03:51:59 10° N 03:57:55 85° W 04:02:40 17° S
CZ-4 R/B 3.1 03:54:38 10° SSW 03:58:09 30° W 04:01:38 10° NW
DELTA 2 R/B (1) 3.6 03:53:33 10° WNW 03:59:08 71° SSW 04:01:06 41° SE
Cosmos 1455 4.1 03:57:40 10° SW 04:00:48 28° W 04:03:56 10° NNW
SPOT 5 3.9 04:03:53 31° ENE 04:03:59 32° ENE 04:08:38 10° N
ATLAS 5 CENTAUR R/B 1.3 04:00:55 10° SW 04:04:10 60° WNW 04:07:35 10° NNE
Cosmos 968 Rocket 4.4 04:03:46 10° NNW 04:08:37 45° WSW 04:12:18 17° SSW
ERS-1 Rocket 4.4 04:16:11 22° NE 04:16:11 22° NE 04:19:04 10° NNE
Delta 2 Rocket 4.5 04:11:05 10° WSW 04:17:12 39° S 04:18:02 37° S
Meteor 1-11 4.1 04:11:54 10° N 04:17:34 73° E 04:18:52 53° SSE
MOS 1 4.2 04:28:08 65° SE 04:28:53 76° ENE 04:34:35 10° N
SJ 16-02 2.2 04:26:13 10° NNW 04:30:19 43° WSW 04:30:56 40° SW
CZ-4C R/B 4.5 04:28:42 10° N 04:31:38 35° WNW 04:31:38 35° WNW
OAO 1 Rocket 4.3 04:29:31 10° W 04:34:52 82° N 04:34:58 81° NNE
In-Cosmos 22 Rocket 4.4 04:29:38 10° NNW 04:35:01 63° W 04:36:36 44° SSW
IRS-1C Rocket 4.2 04:37:49 63° NE 04:37:49 63° NE 04:42:35 10° N
Cosmos 2297 Rocket 4.3 04:39:35 10° NNE 04:41:24 14° NE 04:41:24 14° NE
Okean-O 3.2 04:43:30 53° WNW 04:43:30 53° WNW 04:47:25 10° NNW
MetOp-B 4.1 04:46:23 74° N 04:46:23 74° N 04:51:17 10° NNW
Terra 3.4 04:48:09 25° NNE 04:48:09 25° NNE 04:50:22 10° N
NOSS 3-1 (A) 3.6 04:45:47 10° SW 04:50:24 52° NW 04:55:44 10° NNE
Hubble Space Telescope 3.5 04:51:00 10° WSW 04:51:24 12° WSW 04:51:24 12° WSW
IRS-1A Rocket 4.5 05:03:42 74° NW 05:03:42 74° NW 05:09:07 10° NNW
USA 234 4.2 05:03:03 34° SW 05:04:05 36° SW 05:10:00 10° WNW
Ariane Rocket 4.4 05:07:21 31° N 05:07:21 31° N 05:10:03 10° N
Okean O Rocket 4.2 05:04:10 12° WSW 05:05:36 14° W 05:07:54 10° WNW
Resurs 01 Rocket 4.4 05:10:01 10° WSW 05:11:38 12° W 05:13:16 10° WNW
ATLAS 3B R/B 4.4 05:29:16 10° WSW 05:35:23 31° NW 05:41:54 10° NNE
Cosmos 2227 Rocket 4.4 05:53:05 10° N 05:54:46 18° NNE 05:54:46 18° NNE
CZ-4C R/B 4.1 06:16:29 10° NNW 06:21:29 35° NNE 06:21:29 35° NNE
Cosmos 2297 Rocket 4.4 06:21:32 10° NNW 06:23:12 20° NNW 06:23:12 20° NNW
CENTAUR R/B 4.2 06:56:28 10° NNW 07:02:34 39° NNE 07:02:34 39° NNE
CZ-2D R/B 4.2 09:28:53 10° NNE 09:30:50 23° NNE 09:30:50 23° NNE
SL-16 R/B 4.1 09:36:56 27° E 09:37:48 28° ENE 09:42:57 10° N
COSMOS 2428 4.2 09:52:37 32° NNE 09:52:37 32° NNE 09:55:33 10° NNE
CZ-2C R/B 4.3 09:58:45 29° N 09:58:45 29° N 10:01:24 10° N
Cosmos 2237 Rocket 3.8 09:58:31 30° ENE 09:58:31 30° ENE 10:02:11 10° NE
Lacrosse 5 4.4 10:00:41 14° N 10:00:41 14° N 10:02:11 10° N
ALOS 4.4 10:00:16 10° NNE 10:02:17 23° NE 10:02:17 23° NE
ATLAS 2AS CENTAUR R/B 4.4 10:07:19 23° SE 10:09:02 25° ESE 10:14:45 10° ENE
Resurs 1-4 Rocket 3.9 10:09:04 10° N 10:11:13 24° N 10:11:13 24° N
Nadezhda 4 Rocket 4.4 10:28:35 53° NNW 10:28:35 53° NNW 10:33:13 10° N
NOSS 0 Rocket 4.1 10:32:14 63° N 10:32:14 63° N 10:37:24 10° NNE
Cosmos 2278 Rocket 3.5 10:29:44 10° N 10:35:00 38° ENE 10:40:15 10° SE
Cosmos 2219 Rocket 4.3 10:37:32 15° NNW 10:37:32 15° NNW 10:39:22 10° NNW
Cosmos 1428 Rocket 4.4 10:38:19 85° NE 10:38:19 85° NE 10:44:26 10° N
ATLAS 5 CENTAUR R/B 3.8 10:42:32 37° S 10:42:32 37° S 10:47:47 10° SE
Cosmos 1151 Rocket 4.3 10:44:41 37° NNE 10:44:41 37° NNE 10:47:27 10° NNE
SL-16 R/B 4.0 10:45:14 18° SE 10:47:50 26° ESE 10:52:24 10° NE
CZ-2C R/B 3.6 10:47:30 10° NNE 10:52:21 40° E 10:53:57 32° SE
Cosmos 921 Rocket 4.5 10:53:25 30° ESE 10:53:43 31° E 10:57:30 10° NE
ADEOS II 3.6 10:55:45 10° N 10:58:31 24° NW 10:58:31 24° NW
Meteor 1-19 Rocket 4.3 11:02:24 64° WNW 11:02:24 64° WNW 11:08:14 10° N
Cosmos 923 Rocket 4.0 11:03:38 65° NW 11:03:38 65° NW 11:08:27 10° NNE
Cosmos 1092 Rocket 3.8 11:09:38 61° WSW 11:10:21 66° W 11:16:27 10° N
CZ-2D R/B 4.2 11:10:49 10° NNW 11:12:08 13° NW 11:12:08 13° NW
CZ-3 R/B 4.2 11:01:21 27° SSW 11:13:40 40° SSE 11:22:59 10° E
Envisat 2.9 11:09:03 10° NNE 11:14:09 90° SSE 11:15:01 62° SSW
Cosmos 2026 Rocket 4.0 11:16:44 52° WSW 11:17:42 57° W 11:23:56 10° N
SL-16 R/B 3.1 11:22:00 37° W 11:22:00 37° W 11:26:52 10° NNW
Cosmos 1666 Rocket 4.3 11:18:25 10° N 11:22:46 51° E 11:27:03 10° SSE
NOSS 2-2 (E) 4.5 11:18:19 10° NNW 11:23:30 77° ENE 11:30:56 10° SE
Meteor 1-18 Rocket 4.3 11:21:50 26° S 11:25:05 74° E 11:30:46 10° NNE
Intercosmos 25 Rocket 4.3 11:22:46 10° N 11:26:31 58° E 11:32:14 10° SSE
YAOGAN 6 2.8 11:23:37 10° NNE 11:26:19 57° NNE 11:26:19 57° NNE
CZ-4 R/B 4.1 11:24:32 10° N 11:29:04 47° WNW 11:29:06 47° WNW
Thor Agena Rocket 3.4 11:27:14 10° NNE 11:32:17 84° WNW 11:34:23 36° SSW
EO 1 Delta rocket 4.4 11:28:07 10° N 11:32:15 39° WNW 11:32:15 39° WNW
Meteor 2-4 Rocket 3.5 11:30:43 37° SSW 11:32:54 78° W 11:38:23 10° N
Cosmos 1943 Rocket 2.5 11:28:15 10° NNW 11:33:54 69° ENE 11:39:31 10° SSE
H-2A R/B 3.8 11:31:42 10° NE 11:36:08 30° E 11:40:38 10° SSE
Cosmos 1340 Rocket 3.3 11:39:28 41° NW 11:39:28 41° NW 11:42:38 10° N
Cosmos 2237 Rocket 3.2 11:40:21 27° WNW 11:41:08 28° WNW 11:45:59 10° N
ALOS 4.0 11:38:20 10° NNW 11:40:37 17° NW 11:40:37 17° NW
NOAA 11 4.2 11:36:18 10° N 11:41:40 60° WNW 11:44:06 32° SW
Cosmos 2112 Rocket 4.3 11:41:26 38° WSW 11:42:49 47° WNW 11:47:59 10° N
Cosmos 1328 Rocket 3.6 11:45:30 40° SW 11:46:50 58° W 11:51:12 10° N
Cosmos 1867 4.0 11:41:49 10° NW 11:46:50 37° WSW 11:51:47 10° S
Cosmos 1805 3.0 11:43:58 10° NNW 11:47:38 59° W 11:48:22 47° SW
DMSP B5D2-2 4.2 11:43:57 10° SSE 11:49:07 76° ENE 11:54:18 10° N
SWAS 4.5 11:51:02 10° NNW 11:55:15 80° ENE 11:59:27 10° SSE
